Flag for French Polynesia Weather past 2 weeks in Taiohae, Marquesas Islands, French Polynesia

Now
75 °F

Scattered clouds.


Feels Like: 75 °F
Forecast: 77 / 81 °F
Wind: 1 mph from North

Location: Atuona

Current Time: Jun 30, 2015 at 7:38:26 AM

Latest Report: Jun 30, 2015 at 6:30 AM


Visibility: 25 mi

Pressure: 29.85 "Hg

Humidity: 85%

Dew point: 70 °F

Location of TaiohaeLocation

Historic Weather in Taiohae — Graph

°F

Taiohae temperature yesterday

Maximum temperature yesterday: 84 °F (at 12:30 PM)
Minimum temperature yesterday: 76 °F (at 7:30 PM)
Average temperature yesterday: 79 °F

Past Weeks' High & Low Weather Summary

 TemperatureHumidityPressure
High85 °F (Jun 26, 9:30 AM)91% (Jun 19, 3:30 AM)29.94 "Hg (Jun 19, 3:30 AM)
Low72 °F (Jun 26, 1:30 AM)53% (Jun 16, 10:30 AM)29.73 "Hg (Jun 23, 3:30 PM)
Average78 °F76%29.85 "Hg
* Reported Jun 15 4:30 AM — Jun 30 4:30 AM, Taiohae, Weather by CustomWeather, © 2015

Note: Actual official high and low records may vary slightly from our data, if they occured in-between our weather recording intervals... More about our weather records

Advertising

Taiohae weather history for previous 24 hours

 ConditionsComfort  
Time TempWeatherWind HumidityBarometerVisibility
4:30 AM
Tue, Jun 30
74 °FMild.2 mph84%29.83 "HgN/A
3:30 AM75 °FMild.No wind84%29.83 "HgN/A
2:30 AM76 °FMild.2 mph82%29.83 "HgN/A
1:30 AM75 °FMild.2 mph82%29.85 "HgN/A
12:30 AM78 °FWarm.3 mph77%29.87 "HgN/A
11:30 PM
Mon, Jun 29
78 °FWarm.5 mph78%29.88 "HgN/A
10:30 PM77 °FWarm.2 mph80%29.88 "HgN/A
9:30 PM78 °FWarm.7 mph79%29.88 "HgN/A
8:30 PM78 °FWarm.5 mph78%29.88 "HgN/A
7:30 PM76 °FMild.2 mph81%29.87 "HgN/A
6:30 PM78 °FWarm.2 mph75%29.85 "HgN/A
5:30 PM79 °FWarm.3 mph72%29.84 "HgN/A
4:30 PM80 °FScattered clouds.9 mph72%29.82 "Hg28 mi
2:30 PM83 °FScattered clouds.9 mph66%29.82 "Hg28 mi
1:30 PM83 °FScattered clouds.10 mph64%29.84 "Hg28 mi
12:30 PM84 °FScattered clouds.10 mph65%29.87 "Hg28 mi
10:30 AM83 °FScattered clouds.12 mph70%29.91 "Hg28 mi
9:30 AM81 °FScattered clouds.14 mph73%29.92 "Hg28 mi
8:30 AM80 °FPartly sunny.12 mph77%29.91 "Hg28 mi
7:30 AM80 °FScattered clouds.7 mph77%29.90 "Hg28 mi
Weather by CustomWeather, © 2015

See weather overviewHow to use our weather pages